Location: Corcelles
(46.1547°N, 4.7234°E)
Time: 04:40:16
(UTC+00:00)

SL-16 R/B - Pass Details

Date: 14 July 2020
Orbit: 985 x 1006 km, 99.5° (Epoch: 06 August)

Event Time Altitude Azimuth Distance (km) Brightness Sun altitude
Exits shadow 01:57:01 23° 198° (SSW) 1,984 3.5 -16.1°
Maximum altitude 02:00:40 47° 261° (W) 1,307 2.9 -15.8°
Drops below altitude 10° 02:06:42 10° 334° (NNW) 2,791 5.3 -15.2°
Sets 02:09:19 0° 340° (NNW) 3,747 6.1 -15.0°
